Year,Month,Day,Hour,Minute,Value (Times are PST for temperature in C)
2010,08,11,00,00,14.70
2010,08,11,00,01,14.70
2010,08,11,00,02,14.60
2010,08,11,00,03,14.60
2010,08,11,00,04,14.60
2010,08,11,00,05,14.60
2010,08,11,00,06,14.60
2010,08,11,00,07,14.50
2010,08,11,00,08,14.50
2010,08,11,00,09,14.50
2010,08,11,00,10,14.50
2010,08,11,00,11,14.40
2010,08,11,00,12,14.40
2010,08,11,00,13,14.40
2010,08,11,00,14,14.40
2010,08,11,00,15,14.40
2010,08,11,00,16,14.30
2010,08,11,00,17,14.30
2010,08,11,00,18,14.30
2010,08,11,00,19,14.30
2010,08,11,00,20,14.20
2010,08,11,00,21,14.20
2010,08,11,00,22,14.20
2010,08,11,00,23,14.20
2010,08,11,00,24,14.20
2010,08,11,00,25,14.20
2010,08,11,00,26,14.20
2010,08,11,00,27,14.20
2010,08,11,00,28,14.10
2010,08,11,00,29,14.10
2010,08,11,00,30,14.10
2010,08,11,00,31,14.10
2010,08,11,00,32,14.00
2010,08,11,00,33,14.00
2010,08,11,00,34,14.00
2010,08,11,00,35,14.00
2010,08,11,00,36,14.00
2010,08,11,00,37,13.90
2010,08,11,00,38,13.90
2010,08,11,00,39,13.90
2010,08,11,00,40,13.90
2010,08,11,00,41,13.90
2010,08,11,00,42,13.90
2010,08,11,00,43,13.90
2010,08,11,00,44,13.90
2010,08,11,00,45,13.80
2010,08,11,00,46,13.80
2010,08,11,00,47,13.80
2010,08,11,00,48,13.80
2010,08,11,00,49,13.80
2010,08,11,00,50,13.80
2010,08,11,00,51,13.70
2010,08,11,00,52,13.70
2010,08,11,00,53,13.70
2010,08,11,00,54,13.70
2010,08,11,00,55,13.70
2010,08,11,00,56,13.70
2010,08,11,00,57,13.70
2010,08,11,00,58,13.70
2010,08,11,00,59,13.70
2010,08,11,01,00,13.70
2010,08,11,01,01,13.70
2010,08,11,01,02,13.70
2010,08,11,01,03,13.70
2010,08,11,01,04,13.70
2010,08,11,01,05,13.70
2010,08,11,01,06,13.60
2010,08,11,01,07,13.60
2010,08,11,01,08,13.60
2010,08,11,01,09,13.60
2010,08,11,01,10,13.60
2010,08,11,01,11,13.60
2010,08,11,01,12,13.60
2010,08,11,01,13,13.60
2010,08,11,01,14,13.60
2010,08,11,01,15,13.60
2010,08,11,01,16,13.60
2010,08,11,01,17,13.60
2010,08,11,01,18,13.60
2010,08,11,01,19,13.60
2010,08,11,01,20,13.50
2010,08,11,01,21,13.50
2010,08,11,01,22,13.50
2010,08,11,01,23,13.50
2010,08,11,01,24,13.50
2010,08,11,01,25,13.50
2010,08,11,01,26,13.50
2010,08,11,01,27,13.50
2010,08,11,01,28,13.50
2010,08,11,01,29,13.50
2010,08,11,01,30,13.50
2010,08,11,01,31,13.40
2010,08,11,01,32,13.40
2010,08,11,01,33,13.40
2010,08,11,01,34,13.40
2010,08,11,01,35,13.40
2010,08,11,01,36,13.30
2010,08,11,01,37,13.30
2010,08,11,01,38,13.30
2010,08,11,01,39,13.30
2010,08,11,01,40,13.30
2010,08,11,01,41,13.30
2010,08,11,01,42,13.30
2010,08,11,01,43,13.20
2010,08,11,01,44,13.20
2010,08,11,01,45,13.20
2010,08,11,01,46,13.20
2010,08,11,01,47,13.10
2010,08,11,01,48,13.10
2010,08,11,01,49,13.10
2010,08,11,01,50,13.10
2010,08,11,01,51,13.10
2010,08,11,01,52,13.00
2010,08,11,01,53,13.00
2010,08,11,01,54,13.00
2010,08,11,01,55,13.00
2010,08,11,01,56,12.90
2010,08,11,01,57,12.90
2010,08,11,01,58,12.90
2010,08,11,01,59,12.90
2010,08,11,02,00,12.90
2010,08,11,02,01,12.90
2010,08,11,02,02,12.80
2010,08,11,02,03,12.80
2010,08,11,02,04,12.80
2010,08,11,02,05,12.80
2010,08,11,02,06,12.80
2010,08,11,02,07,12.80
2010,08,11,02,08,12.80
2010,08,11,02,09,12.80
2010,08,11,02,10,12.80
2010,08,11,02,11,12.80
2010,08,11,02,12,12.80
2010,08,11,02,13,12.80
2010,08,11,02,14,12.80
2010,08,11,02,15,12.80
2010,08,11,02,16,12.80
2010,08,11,02,17,12.70
2010,08,11,02,18,12.70
2010,08,11,02,19,12.70
2010,08,11,02,20,12.70
2010,08,11,02,21,12.70
2010,08,11,02,22,12.70
2010,08,11,02,23,12.70
2010,08,11,02,24,12.70
2010,08,11,02,25,12.70
2010,08,11,02,26,12.70
2010,08,11,02,27,12.70
2010,08,11,02,28,12.70
2010,08,11,02,29,12.70
2010,08,11,02,30,12.70
2010,08,11,02,31,12.70
2010,08,11,02,32,12.70
2010,08,11,02,33,12.70
2010,08,11,02,34,12.70
2010,08,11,02,35,12.70
2010,08,11,02,36,12.70
2010,08,11,02,37,12.70
2010,08,11,02,38,12.80
2010,08,11,02,39,12.80
2010,08,11,02,40,12.80
2010,08,11,02,41,12.70
2010,08,11,02,42,12.70
2010,08,11,02,43,12.70
2010,08,11,02,44,12.70
2010,08,11,02,45,12.70
2010,08,11,02,46,12.70
2010,08,11,02,47,12.70
2010,08,11,02,48,12.70
2010,08,11,02,49,12.70
2010,08,11,02,50,12.70
2010,08,11,02,51,12.70
2010,08,11,02,52,12.70
2010,08,11,02,53,12.70
2010,08,11,02,54,12.60
2010,08,11,02,55,12.60
2010,08,11,02,56,12.60
2010,08,11,02,57,12.60
2010,08,11,02,58,12.60
2010,08,11,02,59,12.60
2010,08,11,03,00,12.50
2010,08,11,03,01,12.50
2010,08,11,03,02,12.50
2010,08,11,03,03,12.50
2010,08,11,03,04,12.50
2010,08,11,03,05,12.50
2010,08,11,03,06,12.50
2010,08,11,03,07,12.50
2010,08,11,03,08,12.50
2010,08,11,03,09,12.50
2010,08,11,03,10,12.40
2010,08,11,03,11,12.40
2010,08,11,03,12,12.40
2010,08,11,03,13,12.40
2010,08,11,03,14,12.40
2010,08,11,03,15,12.40
2010,08,11,03,16,12.40
2010,08,11,03,17,12.40
2010,08,11,03,18,12.40
2010,08,11,03,19,12.50
2010,08,11,03,20,12.50
2010,08,11,03,21,12.50
2010,08,11,03,22,12.50
2010,08,11,03,23,12.50
2010,08,11,03,24,12.50
2010,08,11,03,25,12.40
2010,08,11,03,26,12.40
2010,08,11,03,27,12.40
2010,08,11,03,28,12.40
2010,08,11,03,29,12.40
2010,08,11,03,30,12.40
2010,08,11,03,31,12.40
2010,08,11,03,32,12.40
2010,08,11,03,33,12.40
2010,08,11,03,34,12.40
2010,08,11,03,35,12.40
2010,08,11,03,36,12.40
2010,08,11,03,37,12.40
2010,08,11,03,38,12.40
2010,08,11,03,39,12.30
2010,08,11,03,40,12.30
2010,08,11,03,41,12.30
2010,08,11,03,42,12.30
2010,08,11,03,43,12.30
2010,08,11,03,44,12.30
2010,08,11,03,45,12.30
2010,08,11,03,46,12.30
2010,08,11,03,47,12.20
2010,08,11,03,48,12.20
2010,08,11,03,49,12.20
2010,08,11,03,50,12.10
2010,08,11,03,51,12.10
2010,08,11,03,52,12.10
2010,08,11,03,53,12.00
2010,08,11,03,54,12.00
2010,08,11,03,55,12.00
2010,08,11,03,56,12.00
2010,08,11,03,57,12.00
2010,08,11,03,58,11.90
2010,08,11,03,59,11.90
2010,08,11,04,00,11.90
2010,08,11,04,01,11.90
2010,08,11,04,02,11.90
2010,08,11,04,03,11.80
2010,08,11,04,04,11.80
2010,08,11,04,05,11.80
2010,08,11,04,06,11.80
2010,08,11,04,07,11.80
2010,08,11,04,08,11.80
2010,08,11,04,09,11.80
2010,08,11,04,10,11.80
2010,08,11,04,11,11.80
2010,08,11,04,12,11.80
2010,08,11,04,13,11.80
2010,08,11,04,14,11.80
2010,08,11,04,15,11.80
2010,08,11,04,16,11.90
2010,08,11,04,17,11.90
2010,08,11,04,18,11.90
2010,08,11,04,19,11.90
2010,08,11,04,20,11.90
2010,08,11,04,21,11.90
2010,08,11,04,22,11.90
2010,08,11,04,23,11.90
2010,08,11,04,24,11.90
2010,08,11,04,25,11.80
2010,08,11,04,26,11.80
2010,08,11,04,27,11.80
2010,08,11,04,28,11.80
2010,08,11,04,29,11.80
2010,08,11,04,30,11.80
2010,08,11,04,31,11.80
2010,08,11,04,32,11.80
2010,08,11,04,33,11.80
2010,08,11,04,34,11.80
2010,08,11,04,35,11.70
2010,08,11,04,36,11.70
2010,08,11,04,37,11.70
2010,08,11,04,38,11.70
2010,08,11,04,39,11.70
2010,08,11,04,40,11.60
2010,08,11,04,41,11.60
2010,08,11,04,42,11.60
2010,08,11,04,43,11.60
2010,08,11,04,44,11.60
2010,08,11,04,45,11.60
2010,08,11,04,46,11.60
2010,08,11,04,47,11.60
2010,08,11,04,48,11.60
2010,08,11,04,49,11.60
2010,08,11,04,50,11.60
2010,08,11,04,51,11.60
2010,08,11,04,52,11.60
2010,08,11,04,53,11.60
2010,08,11,04,54,11.60
2010,08,11,04,55,11.60
2010,08,11,04,56,11.60
2010,08,11,04,57,11.60
2010,08,11,04,58,11.60
2010,08,11,04,59,11.60
2010,08,11,05,00,11.60
2010,08,11,05,01,11.60
2010,08,11,05,02,11.60
2010,08,11,05,03,11.60
2010,08,11,05,04,11.60
2010,08,11,05,05,11.60
2010,08,11,05,06,11.70
2010,08,11,05,07,11.70
2010,08,11,05,08,11.60
2010,08,11,05,09,11.60
2010,08,11,05,10,11.60
2010,08,11,05,11,11.60
2010,08,11,05,12,11.60
2010,08,11,05,13,11.70
2010,08,11,05,14,11.70
2010,08,11,05,15,11.80
2010,08,11,05,16,11.80
2010,08,11,05,17,11.80
2010,08,11,05,18,11.80
2010,08,11,05,19,11.80
2010,08,11,05,20,11.80
2010,08,11,05,21,11.90
2010,08,11,05,22,11.90
2010,08,11,05,23,12.00
2010,08,11,05,24,12.00
2010,08,11,05,25,12.00
2010,08,11,05,26,12.00
2010,08,11,05,27,12.00
2010,08,11,05,28,12.00
2010,08,11,05,29,12.00
2010,08,11,05,30,12.00
2010,08,11,05,31,12.00
2010,08,11,05,32,12.00
2010,08,11,05,33,12.00
2010,08,11,05,34,12.00
2010,08,11,05,35,12.10
2010,08,11,05,36,12.10
2010,08,11,05,37,12.10
2010,08,11,05,38,12.10
2010,08,11,05,39,12.00
2010,08,11,05,40,12.00
2010,08,11,05,41,12.00
2010,08,11,05,42,11.90
2010,08,11,05,43,11.90
2010,08,11,05,44,11.90
2010,08,11,05,45,11.80
2010,08,11,05,46,11.80
2010,08,11,05,47,11.80
2010,08,11,05,48,11.80
2010,08,11,05,49,11.80
2010,08,11,05,50,11.70
2010,08,11,05,51,11.70
2010,08,11,05,52,11.70
2010,08,11,05,53,11.70
2010,08,11,05,54,11.70
2010,08,11,05,55,11.60
2010,08,11,05,56,11.60
2010,08,11,05,57,11.60
2010,08,11,05,58,11.60
2010,08,11,05,59,11.60
2010,08,11,06,00,11.60
2010,08,11,06,01,11.60
2010,08,11,06,02,11.60
2010,08,11,06,03,11.60
2010,08,11,06,04,11.60
2010,08,11,06,05,11.60
2010,08,11,06,06,11.60
2010,08,11,06,07,11.60
2010,08,11,06,08,11.60
2010,08,11,06,09,11.60
2010,08,11,06,10,11.60
2010,08,11,06,11,11.60
2010,08,11,06,12,11.60
2010,08,11,06,13,11.60
2010,08,11,06,14,11.60
2010,08,11,06,15,11.60
2010,08,11,06,16,11.60
2010,08,11,06,17,11.60
2010,08,11,06,18,11.60
2010,08,11,06,19,11.60
2010,08,11,06,20,11.60
2010,08,11,06,21,11.60
2010,08,11,06,22,11.60
2010,08,11,06,23,11.60
2010,08,11,06,24,11.60
2010,08,11,06,25,11.60
2010,08,11,06,26,11.60
2010,08,11,06,27,11.60
2010,08,11,06,28,11.60
2010,08,11,06,29,11.60
2010,08,11,06,30,11.60
2010,08,11,06,31,11.70
2010,08,11,06,32,11.70
2010,08,11,06,33,11.70
2010,08,11,06,34,11.70
2010,08,11,06,35,11.70
2010,08,11,06,36,11.70
2010,08,11,06,37,11.70
2010,08,11,06,38,11.70
2010,08,11,06,39,11.80
2010,08,11,06,40,11.80
2010,08,11,06,41,11.80
2010,08,11,06,42,11.80
2010,08,11,06,43,11.80
2010,08,11,06,44,11.80
2010,08,11,06,45,11.80
2010,08,11,06,46,11.80
2010,08,11,06,47,11.90
2010,08,11,06,48,11.90
2010,08,11,06,49,11.90
2010,08,11,06,50,11.90
2010,08,11,06,51,11.90
2010,08,11,06,52,11.90
2010,08,11,06,53,11.90
2010,08,11,06,54,11.90
2010,08,11,06,55,11.90
2010,08,11,06,56,11.80
2010,08,11,06,57,11.80
2010,08,11,06,58,11.80
2010,08,11,06,59,11.80
2010,08,11,07,00,11.80
2010,08,11,07,01,11.80
2010,08,11,07,02,11.80
2010,08,11,07,03,11.80
2010,08,11,07,04,11.80
2010,08,11,07,05,11.90
2010,08,11,07,06,11.90
2010,08,11,07,07,12.00
2010,08,11,07,08,12.00
2010,08,11,07,09,12.10
2010,08,11,07,10,12.10
2010,08,11,07,11,12.10
2010,08,11,07,12,12.20
2010,08,11,07,13,12.20
2010,08,11,07,14,12.30
2010,08,11,07,15,12.30
2010,08,11,07,16,12.30
2010,08,11,07,17,12.30
2010,08,11,07,18,12.30
2010,08,11,07,19,12.40
2010,08,11,07,20,12.40
2010,08,11,07,21,12.40
2010,08,11,07,22,12.50
2010,08,11,07,23,12.50
2010,08,11,07,24,12.60
2010,08,11,07,25,12.60
2010,08,11,07,26,12.70
2010,08,11,07,27,12.80
2010,08,11,07,28,12.80
2010,08,11,07,29,12.90
2010,08,11,07,30,13.00
2010,08,11,07,31,13.00
2010,08,11,07,32,13.10
2010,08,11,07,33,13.10
2010,08,11,07,34,13.10
2010,08,11,07,35,13.10
2010,08,11,07,36,13.20
2010,08,11,07,37,13.30
2010,08,11,07,38,13.40
2010,08,11,07,39,13.40
2010,08,11,07,40,13.40
2010,08,11,07,41,13.40
2010,08,11,07,42,13.40
2010,08,11,07,43,13.40
2010,08,11,07,44,13.50
2010,08,11,07,45,13.50
2010,08,11,07,46,13.50
2010,08,11,07,47,13.60
2010,08,11,07,48,13.60
2010,08,11,07,49,13.70
2010,08,11,07,50,13.70
2010,08,11,07,51,13.70
2010,08,11,07,52,13.80
2010,08,11,07,53,13.90
2010,08,11,07,54,13.90
2010,08,11,07,55,14.00
2010,08,11,07,56,14.10
2010,08,11,07,57,14.20
2010,08,11,07,58,14.20
2010,08,11,07,59,14.40
2010,08,11,08,00,14.50
2010,08,11,08,01,14.60
2010,08,11,08,02,14.70
2010,08,11,08,03,14.80
2010,08,11,08,04,15.00
2010,08,11,08,05,15.00
2010,08,11,08,06,15.10
2010,08,11,08,07,15.20
2010,08,11,08,08,15.20
2010,08,11,08,09,15.20
2010,08,11,08,10,15.20
2010,08,11,08,11,15.30
2010,08,11,08,12,15.30
2010,08,11,08,13,15.30
2010,08,11,08,14,15.30
2010,08,11,08,15,15.40
2010,08,11,08,16,15.40
2010,08,11,08,17,15.50
2010,08,11,08,18,15.60
2010,08,11,08,19,15.60
2010,08,11,08,20,15.70
2010,08,11,08,21,15.80
2010,08,11,08,22,15.80
2010,08,11,08,23,15.90
2010,08,11,08,24,16.00
2010,08,11,08,25,16.10
2010,08,11,08,26,16.10
2010,08,11,08,27,16.20
2010,08,11,08,28,16.30
2010,08,11,08,29,16.40
2010,08,11,08,30,16.40
2010,08,11,08,31,16.60
2010,08,11,08,32,16.60
2010,08,11,08,33,16.70
2010,08,11,08,34,16.70
2010,08,11,08,35,16.70
2010,08,11,08,36,16.70
2010,08,11,08,37,16.70
2010,08,11,08,38,16.70
2010,08,11,08,39,16.70
2010,08,11,08,40,16.70
2010,08,11,08,41,16.70
2010,08,11,08,42,16.70
2010,08,11,08,43,16.70
2010,08,11,08,44,16.70
2010,08,11,08,45,16.70
2010,08,11,08,46,16.70
2010,08,11,08,47,16.70
2010,08,11,08,48,16.70
2010,08,11,08,49,16.70
2010,08,11,08,50,16.70
2010,08,11,08,51,16.70
2010,08,11,08,52,16.70
2010,08,11,08,53,16.80
2010,08,11,08,54,16.80
2010,08,11,08,55,16.80
2010,08,11,08,56,16.80
2010,08,11,08,57,16.80
2010,08,11,08,58,16.80
2010,08,11,08,59,16.80
2010,08,11,09,00,16.80
2010,08,11,09,01,16.80
2010,08,11,09,02,16.80
2010,08,11,09,03,16.90
2010,08,11,09,04,17.00
2010,08,11,09,05,17.00
2010,08,11,09,06,17.10
2010,08,11,09,07,17.20
2010,08,11,09,08,17.30
2010,08,11,09,09,17.30
2010,08,11,09,10,17.30
2010,08,11,09,11,17.30
2010,08,11,09,12,17.40
2010,08,11,09,13,17.40
2010,08,11,09,14,17.50
2010,08,11,09,15,17.60
2010,08,11,09,16,17.60
2010,08,11,09,17,17.70
2010,08,11,09,18,17.80
2010,08,11,09,19,17.90
2010,08,11,09,20,17.90
2010,08,11,09,21,17.90
2010,08,11,09,22,17.90
2010,08,11,09,23,17.90
2010,08,11,09,24,17.90
2010,08,11,09,25,17.90
2010,08,11,09,26,17.90
2010,08,11,09,27,17.80
2010,08,11,09,28,17.70
2010,08,11,09,29,17.70
2010,08,11,09,30,17.70
2010,08,11,09,31,17.60
2010,08,11,09,32,17.60
2010,08,11,09,33,17.60
2010,08,11,09,34,17.70
2010,08,11,09,35,17.70
2010,08,11,09,36,17.70
2010,08,11,09,37,17.80
2010,08,11,09,38,17.80
2010,08,11,09,39,17.80
2010,08,11,09,40,17.80
2010,08,11,09,41,17.90
2010,08,11,09,42,17.80
2010,08,11,09,43,17.60
2010,08,11,09,44,17.40
2010,08,11,09,45,17.30
2010,08,11,09,46,17.20
2010,08,11,09,47,17.00
2010,08,11,09,48,16.70
2010,08,11,09,49,16.60
2010,08,11,09,50,16.40
2010,08,11,09,51,16.30
2010,08,11,09,52,16.20
2010,08,11,09,53,16.10
2010,08,11,09,54,16.10
2010,08,11,09,55,16.10
2010,08,11,09,56,16.10
2010,08,11,09,57,16.10
2010,08,11,09,58,16.10
2010,08,11,09,59,16.10
2010,08,11,10,00,16.10
2010,08,11,10,01,16.10
2010,08,11,10,02,16.00
2010,08,11,10,03,15.80
2010,08,11,10,04,15.80
2010,08,11,10,05,15.80
2010,08,11,10,06,15.80
2010,08,11,10,07,15.70
2010,08,11,10,08,15.80
2010,08,11,10,09,15.80
2010,08,11,10,10,15.70
2010,08,11,10,11,15.70
2010,08,11,10,12,15.70
2010,08,11,10,13,15.60
2010,08,11,10,14,15.60
2010,08,11,10,15,15.50
2010,08,11,10,16,15.40
2010,08,11,10,17,15.30
2010,08,11,10,18,15.30
2010,08,11,10,19,15.30
2010,08,11,10,20,15.30
2010,08,11,10,21,15.30
2010,08,11,10,22,15.30
2010,08,11,10,23,15.30
2010,08,11,10,24,15.40
2010,08,11,10,25,15.30
2010,08,11,10,26,15.30
2010,08,11,10,27,15.30
2010,08,11,10,28,15.30
2010,08,11,10,29,15.20
2010,08,11,10,30,15.20
2010,08,11,10,31,15.20
2010,08,11,10,32,15.30
2010,08,11,10,33,15.30
2010,08,11,10,34,15.30
2010,08,11,10,35,15.30
2010,08,11,10,36,15.30
2010,08,11,10,37,15.40
2010,08,11,10,38,15.40
2010,08,11,10,39,15.40
2010,08,11,10,40,15.50
2010,08,11,10,41,15.60
2010,08,11,10,42,15.80
2010,08,11,10,43,15.70
2010,08,11,10,44,15.70
2010,08,11,10,45,15.70
2010,08,11,10,46,15.70
2010,08,11,10,47,15.80
2010,08,11,10,48,15.80
2010,08,11,10,49,15.90
2010,08,11,10,50,15.90
2010,08,11,10,51,16.00
2010,08,11,10,52,16.10
2010,08,11,10,53,16.10
2010,08,11,10,54,16.10
2010,08,11,10,55,16.20
2010,08,11,10,56,16.30
2010,08,11,10,57,16.30
2010,08,11,10,58,16.30
2010,08,11,10,59,16.40
2010,08,11,11,00,16.40
2010,08,11,11,01,16.50
2010,08,11,11,02,16.60
2010,08,11,11,03,16.70
2010,08,11,11,04,16.80
2010,08,11,11,05,16.70
2010,08,11,11,06,16.70
2010,08,11,11,07,16.70
2010,08,11,11,08,16.70
2010,08,11,11,09,16.70
2010,08,11,11,10,16.70
2010,08,11,11,11,16.60
2010,08,11,11,12,16.70
2010,08,11,11,13,16.80
2010,08,11,11,14,16.80
2010,08,11,11,15,16.90
2010,08,11,11,16,17.00
2010,08,11,11,17,17.00
2010,08,11,11,18,17.10
2010,08,11,11,19,17.30
2010,08,11,11,20,17.30
2010,08,11,11,21,17.30
2010,08,11,11,22,17.40
2010,08,11,11,23,17.40
2010,08,11,11,24,17.50
2010,08,11,11,25,17.50
2010,08,11,11,26,17.60
2010,08,11,11,27,17.70
2010,08,11,11,28,17.80
2010,08,11,11,29,17.90
2010,08,11,11,30,17.90
2010,08,11,11,31,17.90
2010,08,11,11,32,18.00
2010,08,11,11,33,17.90
2010,08,11,11,34,17.90
2010,08,11,11,35,17.90
2010,08,11,11,36,18.00
2010,08,11,11,37,18.10
2010,08,11,11,38,18.20
2010,08,11,11,39,18.30
2010,08,11,11,40,18.40
2010,08,11,11,41,18.50
2010,08,11,11,42,18.70
2010,08,11,11,43,18.80
2010,08,11,11,44,18.90
2010,08,11,11,45,18.90
2010,08,11,11,46,19.00
2010,08,11,11,47,18.90
2010,08,11,11,48,18.90
2010,08,11,11,49,19.00
2010,08,11,11,50,19.10
2010,08,11,11,51,19.10
2010,08,11,11,52,19.20
2010,08,11,11,53,19.10
2010,08,11,11,54,19.10
2010,08,11,11,55,19.30
2010,08,11,11,56,19.40
2010,08,11,11,57,19.40
2010,08,11,11,58,19.50
2010,08,11,11,59,19.60
2010,08,11,12,00,19.70
2010,08,11,12,01,19.80
2010,08,11,12,02,19.90
2010,08,11,12,03,20.10
2010,08,11,12,04,20.00
2010,08,11,12,05,20.00
2010,08,11,12,06,19.90
2010,08,11,12,07,19.90
2010,08,11,12,08,20.00
2010,08,11,12,09,19.90
2010,08,11,12,10,20.00
2010,08,11,12,11,20.10
2010,08,11,12,12,20.20
2010,08,11,12,13,20.30
2010,08,11,12,14,20.30
2010,08,11,12,15,20.40
2010,08,11,12,16,20.40
2010,08,11,12,17,20.30
2010,08,11,12,18,20.20
2010,08,11,12,19,20.20
2010,08,11,12,20,20.20
2010,08,11,12,21,20.20
2010,08,11,12,22,20.20
2010,08,11,12,23,20.30
2010,08,11,12,24,20.50
2010,08,11,12,25,20.50
2010,08,11,12,26,20.40
2010,08,11,12,27,20.30
2010,08,11,12,28,20.20
2010,08,11,12,29,20.30
2010,08,11,12,30,20.40
2010,08,11,12,31,20.50
2010,08,11,12,32,20.50
2010,08,11,12,33,20.50
2010,08,11,12,34,20.50
2010,08,11,12,35,20.50
2010,08,11,12,36,20.30
2010,08,11,12,37,20.20
2010,08,11,12,38,20.10
2010,08,11,12,39,20.10
2010,08,11,12,40,20.10
2010,08,11,12,41,20.10
2010,08,11,12,42,20.20
2010,08,11,12,43,20.20
2010,08,11,12,44,20.20
2010,08,11,12,45,20.20
2010,08,11,12,46,20.00
2010,08,11,12,47,19.90
2010,08,11,12,48,19.70
2010,08,11,12,49,19.60
2010,08,11,12,50,19.60
2010,08,11,12,51,19.60
2010,08,11,12,52,19.60
2010,08,11,12,53,19.50
2010,08,11,12,54,19.30
2010,08,11,12,55,19.10
2010,08,11,12,56,19.10
2010,08,11,12,57,19.10
2010,08,11,12,58,19.00
2010,08,11,12,59,19.10
2010,08,11,13,00,19.00
2010,08,11,13,01,18.90
2010,08,11,13,02,18.80
2010,08,11,13,03,18.60
2010,08,11,13,04,18.50
2010,08,11,13,05,18.30
2010,08,11,13,06,18.20
2010,08,11,13,07,18.30
2010,08,11,13,08,18.50
2010,08,11,13,09,18.40
2010,08,11,13,10,18.40
2010,08,11,13,11,18.40
2010,08,11,13,12,18.50
2010,08,11,13,13,18.50
2010,08,11,13,14,18.60
2010,08,11,13,15,18.80
2010,08,11,13,16,18.90
2010,08,11,13,17,19.00
2010,08,11,13,18,19.10
2010,08,11,13,19,19.10
2010,08,11,13,20,19.10
2010,08,11,13,21,19.20
2010,08,11,13,22,19.20
2010,08,11,13,23,19.30
2010,08,11,13,24,19.20
2010,08,11,13,25,19.10
2010,08,11,13,26,19.10
2010,08,11,13,27,19.10
2010,08,11,13,28,19.10
2010,08,11,13,29,19.00
2010,08,11,13,30,18.90
2010,08,11,13,31,19.00
2010,08,11,13,32,19.20
2010,08,11,13,33,19.40
2010,08,11,13,34,19.60
2010,08,11,13,35,19.80
2010,08,11,13,36,20.10
2010,08,11,13,37,20.10
2010,08,11,13,38,19.90
2010,08,11,13,39,19.90
2010,08,11,13,40,19.70
2010,08,11,13,41,19.60
2010,08,11,13,42,19.50
2010,08,11,13,43,19.50
2010,08,11,13,44,19.50
2010,08,11,13,45,19.50
2010,08,11,13,46,19.50
2010,08,11,13,47,19.60
2010,08,11,13,48,19.70
2010,08,11,13,49,19.70
2010,08,11,13,50,19.60
2010,08,11,13,51,19.60
2010,08,11,13,52,19.60
2010,08,11,13,53,19.80
2010,08,11,13,54,20.10
2010,08,11,13,55,20.30
2010,08,11,13,56,20.50
2010,08,11,13,57,20.50
2010,08,11,13,58,20.50
2010,08,11,13,59,20.40
2010,08,11,14,00,20.30
2010,08,11,14,01,20.10
2010,08,11,14,02,20.00
2010,08,11,14,03,20.00
2010,08,11,14,04,20.10
2010,08,11,14,05,20.20
2010,08,11,14,06,20.40
2010,08,11,14,07,20.50
2010,08,11,14,08,20.40
2010,08,11,14,09,20.40
2010,08,11,14,10,20.40
2010,08,11,14,11,20.40
2010,08,11,14,12,20.40
2010,08,11,14,13,20.40
2010,08,11,14,14,20.40
2010,08,11,14,15,20.40
2010,08,11,14,16,20.30
2010,08,11,14,17,20.40
2010,08,11,14,18,20.40
2010,08,11,14,19,20.40
2010,08,11,14,20,20.30
2010,08,11,14,21,20.20
2010,08,11,14,22,20.20
2010,08,11,14,23,20.30
2010,08,11,14,24,20.40
2010,08,11,14,25,20.50
2010,08,11,14,26,20.50
2010,08,11,14,27,20.50
2010,08,11,14,28,20.50
2010,08,11,14,29,20.70
2010,08,11,14,30,20.80
2010,08,11,14,31,20.70
2010,08,11,14,32,20.70
2010,08,11,14,33,20.70
2010,08,11,14,34,20.70
2010,08,11,14,35,20.60
2010,08,11,14,36,20.70
2010,08,11,14,37,20.80
2010,08,11,14,38,20.80
2010,08,11,14,39,20.70
2010,08,11,14,40,20.60
2010,08,11,14,41,20.60
2010,08,11,14,42,20.50
2010,08,11,14,43,20.40
2010,08,11,14,44,20.30
2010,08,11,14,45,20.20
2010,08,11,14,46,20.20
2010,08,11,14,47,20.20
2010,08,11,14,48,20.30
2010,08,11,14,49,20.30
2010,08,11,14,50,20.40
2010,08,11,14,51,20.50
2010,08,11,14,52,20.60
2010,08,11,14,53,20.60
2010,08,11,14,54,20.50
2010,08,11,14,55,20.50
2010,08,11,14,56,20.60
2010,08,11,14,57,20.60
2010,08,11,14,58,20.60
2010,08,11,14,59,20.50
2010,08,11,15,00,20.50
2010,08,11,15,01,20.50
2010,08,11,15,02,20.50
2010,08,11,15,03,20.60
2010,08,11,15,04,20.70
2010,08,11,15,05,20.60
2010,08,11,15,06,20.60
2010,08,11,15,07,20.60
2010,08,11,15,08,20.50
2010,08,11,15,09,20.30
2010,08,11,15,10,20.20
2010,08,11,15,11,20.20
2010,08,11,15,12,20.20
2010,08,11,15,13,20.30
2010,08,11,15,14,20.30
2010,08,11,15,15,20.40
2010,08,11,15,16,20.30
2010,08,11,15,17,20.30
2010,08,11,15,18,20.30
2010,08,11,15,19,20.40
2010,08,11,15,20,20.40
2010,08,11,15,21,20.50
2010,08,11,15,22,20.50
2010,08,11,15,23,20.50
2010,08,11,15,24,20.50
2010,08,11,15,25,20.50
2010,08,11,15,26,20.40
2010,08,11,15,27,20.20
2010,08,11,15,28,20.20
2010,08,11,15,29,20.20
2010,08,11,15,30,20.20
2010,08,11,15,31,20.10
2010,08,11,15,32,20.10
2010,08,11,15,33,20.20
2010,08,11,15,34,20.20
2010,08,11,15,35,20.30
2010,08,11,15,36,20.40
2010,08,11,15,37,20.40
2010,08,11,15,38,20.20
2010,08,11,15,39,20.00
2010,08,11,15,40,19.90
2010,08,11,15,41,20.00
2010,08,11,15,42,20.10
2010,08,11,15,43,20.20
2010,08,11,15,44,20.20
2010,08,11,15,45,20.30
2010,08,11,15,46,20.20
2010,08,11,15,47,20.20
2010,08,11,15,48,20.10
2010,08,11,15,49,20.10
2010,08,11,15,50,20.10
2010,08,11,15,51,20.10
2010,08,11,15,52,19.90
2010,08,11,15,53,20.00
2010,08,11,15,54,20.20
2010,08,11,15,55,20.20
2010,08,11,15,56,20.30
2010,08,11,15,57,20.40
2010,08,11,15,58,20.40
2010,08,11,15,59,20.40
2010,08,11,16,00,20.50
2010,08,11,16,01,20.50
2010,08,11,16,02,20.60
2010,08,11,16,03,20.60
2010,08,11,16,04,20.50
2010,08,11,16,05,20.50
2010,08,11,16,06,20.40
2010,08,11,16,07,20.30
2010,08,11,16,08,20.40
2010,08,11,16,09,20.40
2010,08,11,16,10,20.50
2010,08,11,16,11,20.50
2010,08,11,16,12,20.50
2010,08,11,16,13,20.50
2010,08,11,16,14,20.30
2010,08,11,16,15,20.20
2010,08,11,16,16,20.20
2010,08,11,16,17,20.10
2010,08,11,16,18,20.10
2010,08,11,16,19,20.10
2010,08,11,16,20,20.20
2010,08,11,16,21,20.20
2010,08,11,16,22,20.30
2010,08,11,16,23,20.40
2010,08,11,16,24,20.50
2010,08,11,16,25,20.50
2010,08,11,16,26,20.50
2010,08,11,16,27,20.60
2010,08,11,16,28,20.60
2010,08,11,16,29,20.70
2010,08,11,16,30,20.80
2010,08,11,16,31,21.00
2010,08,11,16,32,21.00
2010,08,11,16,33,21.00
2010,08,11,16,34,20.90
2010,08,11,16,35,20.90
2010,08,11,16,36,21.00
2010,08,11,16,37,21.00
2010,08,11,16,38,21.00
2010,08,11,16,39,20.90
2010,08,11,16,40,20.90
2010,08,11,16,41,20.80
2010,08,11,16,42,20.80
2010,08,11,16,43,20.70
2010,08,11,16,44,20.60
2010,08,11,16,45,20.70
2010,08,11,16,46,20.70
2010,08,11,16,47,20.60
2010,08,11,16,48,20.50
2010,08,11,16,49,20.40
2010,08,11,16,50,20.30
2010,08,11,16,51,20.20
2010,08,11,16,52,20.20
2010,08,11,16,53,20.30
2010,08,11,16,54,20.40
2010,08,11,16,55,20.40
2010,08,11,16,56,20.40
2010,08,11,16,57,20.40
2010,08,11,16,58,20.30
2010,08,11,16,59,20.30
2010,08,11,17,00,20.30
2010,08,11,17,01,20.30
2010,08,11,17,02,20.30
2010,08,11,17,03,20.30
2010,08,11,17,04,20.30
2010,08,11,17,05,20.40
2010,08,11,17,06,20.40
2010,08,11,17,07,20.40
2010,08,11,17,08,20.50
2010,08,11,17,09,20.60
2010,08,11,17,10,20.60
2010,08,11,17,11,20.50
2010,08,11,17,12,20.50
2010,08,11,17,13,20.40
2010,08,11,17,14,20.50
2010,08,11,17,15,20.50
2010,08,11,17,16,20.50
2010,08,11,17,17,20.40
2010,08,11,17,18,20.50
2010,08,11,17,19,20.50